[[{"header":{"parameterUnit":"m.s-1","parameterCategory":1,"la1":30.2991,"la2":30.254,"lo1":-89.0895,"lo2":-89.0444,"dy":0.0017,"dx":0.0017,"nx":28,"ny":28,"refTime":"2023-10-08T03:00:00:Z","depth":0,"parameterNumber":2,"parameterNumberName":"U-component_of_WINDS"},"data":[0,0,0,0,0,0,0,0,0,0,0,0,0,0,0,0,0,0,0,0,0,0,0,0,0,0,0,0,0,0,0,0,0,0,0,0,0,0,0,0,0,0,0,0,0,0,0,0,0,0,0,0,0,0,0,0,0,0,-1.4262,-1.4263,0,-1.4372,-1.4373,-1.4374,-1.4442,-1.4442,-1.4443,-1.4443,-1.4553,-1.4556,-1.4558,0,0,0,0,0,0,0,0,0,0,0,0,0,-1.4108,-1.4111,-1.4262,-1.4263,-1.4264,-1.4371,-1.4373,-1.4374,-1.4442,-1.4442,-1.4443,-1.4443,-1.4552,-1.4555,-1.4558,0,0,0,0,0,0,0,0,0,0,0,0,0,-1.4192,-1.4112,-1.4261,-1.4311,-1.4316,-1.4371,-1.4373,-1.4375,-1.4442,-1.4442,-1.4443,-1.4443,-1.4551,-1.4555,-1.4559,-1.4572,0,0,-1.4571,-1.4572,0,0,0,0,0,0,0,0,-1.4187,-1.4198,-1.4302,-1.4308,-1.4314,-1.4394,-1.4359,-1.4441,-1.4442,-1.4394,-1.4443,-1.4444,-1.4499,-1.4508,-1.4527,-1.4577,-1.4582,-1.4571,-1.4573,-1.4575,-1.4576,0,0,0,0,0,0,0,-1.4181,-1.4193,-1.4305,-1.4304,-1.4311,-1.4327,-1.434,-1.4375,-1.4442,-1.4398,-1.4403,-1.4416,-1.4503,-1.4523,-1.453,-1.4584,-1.4571,-1.4574,-1.4577,-1.4578,-1.4651,-1.4651,0,0,0,0,0,0,-1.4168,-1.4188,-1.4302,-1.4308,-1.4251,-1.4329,-1.4344,-1.4367,-1.4442,-1.4454,-1.4415,-1.4418,-1.4516,-1.4525,-1.4534,-1.4555,-1.4575,-1.4579,-1.4581,-1.4651,-1.4651,-1.4651,0,0,0,0,0,0,-1.4164,-1.4177,-1.4297,-1.425,-1.4266,-1.4332,-1.4358,-1.4369,-1.439,-1.4455,-1.4467,-1.4424,-1.4517,-1.4529,-1.4563,-1.456,-1.4581,-1.4584,-1.4652,-1.4651,-1.4651,-1.4596,0,0,0,0,0,0,-1.416,-1.4176,-1.4182,-1.4249,-1.4269,-1.4324,-1.4358,-1.4371,-1.4397,-1.4402,-1.4466,-1.4477,-1.4518,-1.4556,-1.4566,-1.4566,-1.4587,-1.4652,-1.4652,-1.4651,-1.4599,-1.4594,-1.459,0,0,0,0,0,-1.4154,-1.4161,-1.4182,-1.4195,-1.4277,-1.4324,-1.4334,-1.4382,-1.4396,-1.4403,-1.4445,-1.4475,-1.4559,-1.4559,-1.4571,-1.4571,-1.4653,-1.4652,-1.4651,-1.4601,-1.4595,-1.459,0,0,0,0,0,0,-1.4091,-1.4171,-1.4195,-1.4224,-1.4267,-1.4335,-1.4344,-1.4375,-1.4413,-1.4417,-1.4474,-1.4488,-1.4516,-1.4547,-1.4546,-1.4589,-1.4609,-1.4611,-1.4567,-1.4562,-1.4558,-1.4549,-1.459,0,0,0,0,0,-1.408,-1.4112,-1.418,-1.4199,-1.422,-1.4278,-1.43,-1.4333,-1.4379,-1.4397,-1.4442,-1.4485,-1.4521,-1.4543,-1.458,-1.4604,-1.4619,-1.461,-1.4605,-1.4602,-1.4602,-1.4617,-1.4614,-1.4648,-1.4648,-1.4648,0,0,-1.4059,-1.4107,-1.4123,-1.4188,-1.4225,-1.4256,-1.4293,-1.4324,-1.4347,-1.4402,-1.4437,-1.4471,-1.4523,-1.4552,-1.4567,-1.4579,-1.4596,-1.46,-1.4597,-1.4599,-1.4616,-1.4613,-1.461,-1.4647,-1.4647,-1.4647,0,0,-1.4035,-1.4075,-1.4096,-1.4132,-1.4188,-1.4227,-1.4232,-1.4296,-1.4321,-1.4357,-1.4399,-1.4428,-1.4489,-1.4524,-1.455,-1.4541,-1.457,-1.4551,-1.4528,-1.4542,-1.4539,-1.4537,-1.4534,-1.4532,-1.4551,-1.4551,-1.4551,0,-1.4001,-1.405,-1.4102,-1.4131,-1.4158,-1.4211,-1.4232,-1.4265,-1.4329,-1.4347,-1.436,-1.4438,-1.4476,-1.4514,-1.4512,-1.4531,-1.4539,-1.4544,-1.4536,-1.4534,-1.4533,-1.4531,-1.4529,-1.4548,-1.4549,-1.4549,-1.4549,0,-1.4005,-1.4039,-1.4049,-1.4111,-1.4139,-1.4164,-1.422,-1.4242,-1.4273,-1.4311,-1.4347,-1.4395,-1.4443,-1.4455,-1.4485,-1.4497,-1.4503,-1.4525,-1.4547,-1.4526,-1.4525,-1.4524,-1.4545,-1.4546,-1.4546,-1.4547,0,0,-1.3944,-1.4036,-1.4038,-1.4067,-1.4133,-1.416,-1.4187,-1.4234,-1.4253,-1.4296,-1.432,-1.4371,-1.4392,-1.4421,-1.4456,-1.4468,-1.4458,-1.4489,-1.4491,-1.4482,-1.4475,-1.4458,-1.4456,-1.4479,-1.4479,-1.4479,-1.4471,0,-1.393,-1.3982,-1.403,-1.4065,-1.4096,-1.4147,-1.4171,-1.4214,-1.425,-1.4281,-1.4321,-1.4356,-1.4381,-1.4399,-1.4414,-1.4456,-1.4458,-1.4458,-1.4501,-1.4502,-1.4486,-1.4455,-1.4437,-1.4427,-1.4471,-1.4471,-1.4471,0,-1.392,-1.3962,-1.4,-1.4064,-1.4078,-1.4099,-1.4147,-1.4177,-1.4226,-1.4252,-1.4285,-1.4322,-1.4353,-1.4372,-1.4415,-1.4414,-1.4435,-1.4459,-1.4459,-1.4465,-1.4484,-1.4459,-1.4425,-1.4423,-1.447,-1.447,-1.447,0,-1.3871,-1.3937,-1.3969,-1.3992,-1.4067,-1.408,-1.4112,-1.4162,-1.4188,-1.423,-1.4247,-1.4291,-1.4315,-1.4349,-1.4397,-1.4406,-1.4435,-1.4458,-1.4457,-1.4455,-1.446,-1.4458,-1.4427,-1.4474,-1.4474,-1.4474,-1.4474,0,-1.3851,-1.3871,-1.3948,-1.3967,-1.3992,-1.4047,-1.407,-1.4107,-1.4151,-1.4178,-1.4225,-1.4249,-1.4311,-1.4342,-1.438,-1.441,-1.4421,-1.4442,-1.4452,-1.4438,-1.4435,-1.4451,-1.4453,-1.4473,-1.4473,-1.4473,-1.4474,0,-1.38,-1.3852,-1.3889,-1.3957,-1.3975,-1.3991,-1.4049,-1.4069,-1.4109,-1.4142,-1.4153,-1.4214,-1.4254,-1.4306,-1.4361,-1.4386,-1.4412,-1.4427,-1.4395,-1.4401,-1.4396,-1.4396,-1.4374,-1.4374,-1.442,-1.442,-1.4419,0,-1.3782,-1.38,-1.3871,-1.3892,-1.3923,-1.3957,-1.3984,-1.4039,-1.4065,-1.4124,-1.4137,-1.4181,-1.4218,-1.4279,-1.4328,-1.4371,-1.4388,-1.4377,-1.4394,-1.438,-1.4387,-1.4385,-1.4387,-1.4372,-1.4372,-1.4371,-1.437,0,-1.3746,-1.3771,-1.3809,-1.3855,-1.3886,-1.3925,-1.3966,-1.3981,-1.4045,-1.4072,-1.4114,-1.4143,-1.42,-1.4243,-1.4292,-1.4325,-1.4358,-1.4365,-1.4367,-1.4352,-1.4333,-1.4343,-1.4383,-1.4365,-1.4365,-1.4366,-1.4366,-1.4366,-1.3712,-1.373,-1.3783,-1.3823,-1.386,-1.3897,-1.392,-1.3963,-1.3998,-1.405,-1.4081,-1.4121,-1.4171,-1.4241,-1.4272,-1.4305,-1.4317,-1.432,-1.4321,-1.432,-1.4316,-1.4328,-1.4314,-1.4314,-1.4314,-1.4315,-1.4315,0,-1.3678,-1.3714,-1.3751,-1.3807,-1.3839,-1.3869,-1.3916,-1.394,-1.3976,-1.402,-1.4056,-1.4104,-1.4146,-1.4199,-1.4244,-1.426,-1.4276,-1.427,-1.4269,-1.4276,-1.4302,-1.4295,-1.4256,-1.4256,-1.4256,-1.4256,-1.4256,-1.4256,-1.3664,-1.3696,-1.3727,-1.3779,-1.3816,-1.3856,-1.388,-1.3915,-1.3951,-1.4003,-1.4038,-1.4073,-1.4121,-1.417,-1.421,-1.4224,-1.4238,-1.4227,-1.4246,-1.4269,-1.4274,-1.4279,-1.4273,-1.423,-1.423,-1.4218,-1.4218,-1.4218]},{"header":{"parameterUnit":"m.s-1","parameterCategory":1,"la1":30.2991,"la2":30.254,"lo1":-89.0895,"lo2":-89.0444,"dy":0.0017,"dx":0.0017,"nx":28,"ny":28,"refTime":"2023-10-08T03:00:00:Z","depth":0,"parameterNumber":3,"parameterNumberName":"V-component_of_WINDS"},"data":[0,0,0,0,0,0,0,0,0,0,0,0,0,0,0,0,0,0,0,0,0,0,0,0,0,0,0,0,0,0,0,0,0,0,0,0,0,0,0,0,0,0,0,0,0,0,0,0,0,0,0,0,0,0,0,0,0,0,-0.4756,-0.4756,0,-0.4726,-0.4726,-0.4726,-0.4714,-0.4714,-0.4714,-0.4714,-0.4687,-0.4686,-0.4685,0,0,0,0,0,0,0,0,0,0,0,0,0,-0.4805,-0.4804,-0.4756,-0.4756,-0.4755,-0.4726,-0.4726,-0.4726,-0.4714,-0.4714,-0.4714,-0.4714,-0.4687,-0.4686,-0.4685,0,0,0,0,0,0,0,0,0,0,0,0,0,-0.4781,-0.4804,-0.4756,-0.4746,-0.4745,-0.4726,-0.4726,-0.4725,-0.4714,-0.4714,-0.4714,-0.4714,-0.4687,-0.4686,-0.4685,-0.4675,0,0,-0.4681,-0.4681,0,0,0,0,0,0,0,0,-0.4782,-0.4779,-0.4748,-0.4747,-0.4745,-0.4724,-0.4733,-0.4709,-0.4714,-0.4726,-0.4714,-0.4714,-0.4699,-0.4697,-0.4691,-0.4674,-0.4673,-0.4681,-0.468,-0.468,-0.468,0,0,0,0,0,0,0,-0.4784,-0.478,-0.4744,-0.4747,-0.4746,-0.4744,-0.474,-0.4729,-0.4712,-0.4725,-0.4724,-0.472,-0.4699,-0.4692,-0.4691,-0.4672,-0.4681,-0.468,-0.4679,-0.4679,-0.4646,-0.4646,0,0,0,0,0,0,-0.4787,-0.4782,-0.4745,-0.4743,-0.4764,-0.4743,-0.4739,-0.4731,-0.4712,-0.471,-0.472,-0.472,-0.4694,-0.4692,-0.469,-0.4677,-0.468,-0.4679,-0.4678,-0.4646,-0.4646,-0.4646,0,0,0,0,0,0,-0.4788,-0.4784,-0.4746,-0.4762,-0.4757,-0.4742,-0.4733,-0.473,-0.4724,-0.4709,-0.4706,-0.4717,-0.4694,-0.4691,-0.4679,-0.4676,-0.4678,-0.4677,-0.4647,-0.4646,-0.4646,-0.4652,0,0,0,0,0,0,-0.4789,-0.4784,-0.478,-0.4762,-0.4756,-0.4735,-0.4732,-0.4729,-0.4722,-0.4721,-0.4705,-0.4703,-0.4694,-0.4681,-0.4678,-0.4674,-0.4676,-0.4647,-0.4646,-0.4646,-0.4652,-0.4652,-0.4652,0,0,0,0,0,-0.4791,-0.4783,-0.4779,-0.4775,-0.475,-0.4735,-0.4732,-0.4722,-0.4721,-0.4717,-0.4708,-0.4703,-0.4677,-0.4679,-0.4676,-0.4672,-0.4647,-0.4647,-0.4646,-0.4652,-0.4652,-0.4652,0,0,0,0,0,0,-0.4801,-0.4781,-0.4776,-0.4762,-0.475,-0.4733,-0.4727,-0.4722,-0.4711,-0.4711,-0.47,-0.4696,-0.4685,-0.4677,-0.4681,-0.4662,-0.4662,-0.4661,-0.4667,-0.4667,-0.4667,-0.4669,-0.4675,0,0,0,0,0,-0.4802,-0.479,-0.4773,-0.4762,-0.4757,-0.4743,-0.4736,-0.4729,-0.4717,-0.4712,-0.4702,-0.4691,-0.468,-0.4673,-0.4663,-0.4651,-0.4648,-0.4647,-0.4647,-0.4647,-0.4646,-0.464,-0.464,-0.4645,-0.4645,-0.4645,0,0,-0.4803,-0.479,-0.4784,-0.4764,-0.4754,-0.4743,-0.4739,-0.4728,-0.472,-0.4711,-0.4698,-0.469,-0.4677,-0.4665,-0.466,-0.4659,-0.4644,-0.4647,-0.4647,-0.4646,-0.464,-0.4639,-0.4639,-0.4645,-0.4645,-0.4645,0,0,-0.4799,-0.4788,-0.4778,-0.4768,-0.4753,-0.4744,-0.4742,-0.4725,-0.4719,-0.4706,-0.4699,-0.469,-0.4672,-0.4663,-0.4656,-0.465,-0.4645,-0.4647,-0.4647,-0.4641,-0.464,-0.464,-0.4638,-0.4637,-0.4646,-0.4646,-0.4646,0,-0.4803,-0.4785,-0.4774,-0.4762,-0.4754,-0.4745,-0.4735,-0.4726,-0.4709,-0.4704,-0.4703,-0.468,-0.4671,-0.4657,-0.4655,-0.465,-0.4647,-0.4648,-0.4641,-0.4641,-0.464,-0.4638,-0.4637,-0.4646,-0.4646,-0.4646,-0.4646,0,-0.479,-0.4778,-0.4772,-0.4754,-0.4745,-0.4735,-0.4723,-0.4716,-0.471,-0.4701,-0.4689,-0.4677,-0.4664,-0.466,-0.4655,-0.4645,-0.4645,-0.4643,-0.4642,-0.464,-0.4638,-0.4637,-0.4647,-0.4647,-0.4646,-0.4646,0,0,-0.4792,-0.4768,-0.4766,-0.4758,-0.474,-0.4731,-0.4721,-0.4707,-0.4701,-0.469,-0.4681,-0.4666,-0.4664,-0.4656,-0.465,-0.4644,-0.464,-0.4643,-0.4642,-0.4643,-0.4629,-0.4631,-0.463,-0.4637,-0.4637,-0.4637,-0.463,0,-0.4786,-0.4765,-0.4755,-0.4739,-0.4728,-0.472,-0.4711,-0.47,-0.4692,-0.4682,-0.4674,-0.4663,-0.4661,-0.4656,-0.4651,-0.4642,-0.4637,-0.4642,-0.4629,-0.4629,-0.4633,-0.4629,-0.463,-0.4625,-0.4629,-0.4629,-0.4629,0,-0.4776,-0.4763,-0.4746,-0.473,-0.4726,-0.4717,-0.4704,-0.4695,-0.4683,-0.4677,-0.4669,-0.4662,-0.4652,-0.4652,-0.4638,-0.4641,-0.4636,-0.4631,-0.463,-0.4629,-0.4629,-0.4627,-0.4623,-0.4622,-0.4628,-0.4628,-0.4628,0,-0.4779,-0.4758,-0.4745,-0.4738,-0.4719,-0.4714,-0.4706,-0.4694,-0.4686,-0.4675,-0.467,-0.4659,-0.4652,-0.4644,-0.4635,-0.4636,-0.4622,-0.4621,-0.4617,-0.4618,-0.4615,-0.4615,-0.461,-0.4611,-0.4611,-0.4611,-0.4611,0,-0.4773,-0.4763,-0.4746,-0.4738,-0.4727,-0.4715,-0.4705,-0.4697,-0.4686,-0.4677,-0.4669,-0.4661,-0.465,-0.4641,-0.4634,-0.4623,-0.4621,-0.4617,-0.4615,-0.4617,-0.4618,-0.4613,-0.4613,-0.4611,-0.4611,-0.4611,-0.4611,0,-0.4774,-0.4762,-0.4747,-0.473,-0.4726,-0.4719,-0.4705,-0.4697,-0.4689,-0.4678,-0.4675,-0.4662,-0.4651,-0.4641,-0.4626,-0.4622,-0.4611,-0.4609,-0.4615,-0.4614,-0.4611,-0.4611,-0.4602,-0.4601,-0.4604,-0.4604,-0.4604,0,-0.4771,-0.4762,-0.4745,-0.4737,-0.4729,-0.4718,-0.471,-0.4699,-0.4692,-0.4677,-0.4672,-0.466,-0.465,-0.4632,-0.4623,-0.4612,-0.4609,-0.4607,-0.4608,-0.461,-0.4609,-0.461,-0.4609,-0.4607,-0.4607,-0.4607,-0.4607,0,-0.4766,-0.4761,-0.4749,-0.4735,-0.4726,-0.4715,-0.4704,-0.4699,-0.4686,-0.4678,-0.4666,-0.4658,-0.4643,-0.4632,-0.462,-0.4613,-0.4608,-0.4607,-0.4605,-0.4608,-0.4611,-0.4609,-0.4615,-0.4607,-0.4607,-0.4607,-0.4607,-0.4607,-0.4765,-0.4757,-0.4743,-0.4731,-0.4721,-0.4711,-0.4703,-0.4694,-0.4683,-0.4669,-0.4664,-0.4652,-0.464,-0.4624,-0.4617,-0.4608,-0.4607,-0.4605,-0.4604,-0.4604,-0.4604,-0.4613,-0.4605,-0.4605,-0.4605,-0.4605,-0.4605,0,-0.476,-0.4751,-0.4739,-0.4724,-0.4714,-0.4709,-0.4697,-0.469,-0.4679,-0.4668,-0.4658,-0.4644,-0.4633,-0.4623,-0.4611,-0.4606,-0.4604,-0.4604,-0.4604,-0.4602,-0.4606,-0.4608,-0.4606,-0.4606,-0.4606,-0.4606,-0.4606,-0.4606,-0.4756,-0.4743,-0.4736,-0.4719,-0.471,-0.4697,-0.4691,-0.4682,-0.4673,-0.4658,-0.4648,-0.4641,-0.463,-0.4618,-0.4608,-0.4605,-0.4602,-0.4602,-0.4599,-0.4602,-0.4602,-0.4602,-0.4604,-0.4601,-0.4601,-0.4596,-0.4596,-0.4596]}]]